Flag for Germany Weather past 2 weeks in Neuruppin, Brandenburg, Germany

Now
36 °F

Clear.


Feels Like: 36 °F
Forecast: 41 / 50 °F
Wind: 1 mph from South

Location: Neuruppin


UV Index: 0 (Low)

Visibility: 6 mi


Pressure: 30.38 "Hg

Humidity: 92%

Dew point: 34 °F

Location of NeuruppinLocation

Historic Weather in Neuruppin

°F

Neuruppin temperature yesterday

Maximum temperature yesterday: 56 °F (at 4:00 PM)
Minimum temperature yesterday: 33 °F (at 7:00 AM)
Average temperature yesterday: 45 °F

Past Weeks' High & Low Weather Summary

 TemperatureHumidityPressure
High67 °F (Apr 3, 4:00 PM)98% (Apr 12, 6:00 AM)30.47 "Hg (Apr 12, 6:00 AM)
Low33 °F (Apr 16, 7:00 AM)31% (Apr 16, 1:00 PM)29.66 "Hg (Apr 3, 6:00 AM)
Average49 °F75%29.99 "Hg
* Reported Apr 2 2:00 AM — Apr 17 2:00 AM, Neuruppin, Weather by CustomWeather, © 2014

Note: Actual official high and low records may vary slightly from our data, if they occured in-between our weather recording intervals... More about our weather records

Advertising

Historic Weather Conditions — Data for Previous 24 hours

 ConditionsComfort  
Time TempWeatherWind HumidityBarometerVisibility
2:00 AM
Apr 17
36 °FClear.No wind91%30.39 "Hg6 mi
1:00 AM37 °FClear.No wind90%30.40 "Hg6 mi
12:00 AM39 °FClear.No wind73%30.40 "Hg6 mi
11:00 PM
Apr 16
40 °FClear.No wind73%30.40 "Hg6 mi
10:00 PM42 °FClear.1 mph68%30.40 "Hg6 mi
9:00 PM45 °FPassing clouds.1 mph65%30.41 "Hg6 mi
8:00 PM50 °FSunny.1 mph46%30.40 "Hg6 mi
7:00 PM52 °FPartly sunny.1 mph57%30.40 "Hg6 mi
6:00 PM53 °FPartly sunny.1 mph41%30.41 "Hg6 mi
5:00 PM54 °FOvercast.2 mph36%30.42 "Hg6 mi
4:00 PM56 °FScattered clouds.2 mph32%30.43 "Hg6 mi
3:00 PM54 °FOvercast.2 mph36%30.44 "Hg6 mi
2:00 PM54 °FOvercast.2 mph39%30.45 "Hg6 mi
1:00 PM52 °FPartly sunny.1 mph31%30.46 "Hg6 mi
12:00 PM52 °FScattered clouds.1 mph36%30.47 "Hg6 mi
11:00 AM51 °FPassing clouds.1 mph41%30.46 "Hg6 mi
10:00 AM47 °FSunny.2 mph57%30.46 "Hg6 mi
9:00 AM43 °FPassing clouds.2 mph75%30.45 "Hg6 mi
8:00 AM38 °FPassing clouds.2 mph97%30.44 "Hg6 mi
7:00 AM33 °FSunny.1 mph96%30.42 "Hg6 mi
6:00 AM34 °FClear.2 mph98%30.40 "Hg6 mi
5:00 AM34 °FClear.2 mph97%30.37 "Hg6 mi
4:00 AM36 °FClear.2 mph95%30.36 "Hg6 mi
3:00 AM37 °FClear.3 mph95%30.36 "Hg6 mi
Weather by CustomWeather, © 2014

See weather overview